Temp
26 26 25 25 25 24 23 23 22 21 21 21 20 20 20 20 20 20 20 20 20 20 19 19 19 19 18 19 18 18 18 17 18 18 18 18 18 18 17 17 17 17 17
27 27 26 25 25 24 24 23 22 22 21 20 20 20 20 20 20 20 20 20 20 20 20 19 19 19 19 18 18 18 18 18 18 18 18 18 17 18 17 17 17 17 17
27 27 26 25 25 24 24 23 23 22 21 20 20 19 20 20 20 20 20 20 20 20 20 19 19 18 18 18 18 18 18 17 18 18 18 17 17 17 17 17 17 17 17
28 27 26 26 25 25 24 23 23 22 21 20 20 20 20 21 21 20 20 20 20 20 19 19 19 18 18 18 18 18 18 17 17 17 17 18 18 17 17 17 17 17 17
29 28 27 26 26 25 25 24 23 22 22 21 20 20 20 20 20 20 20 21 21 20 19 19 18 19 18 18 19 19 19 18 17 17 17 17 17 18 18 17 17 17 17
30 30 28 27 26 26 25 24 24 23 22 21 20 20 20 21 20 21 21 21 20 20 20 19 19 19 19 19 19 19 19 18 18 17 17 18 17 17 17 17 17 17 16
30 29 28 27 26 26 25 24 24 23 22 21 21 20 20 21 22 22 21 21 21 20 20 20 20 20 19 20 19 19 19 18 17 17 17 17 17 17 17 17 17 17 17
31 30 30 28 26 26 25 25 24 24 23 22 21 20 20 21 22 21 21 21 21 21 20 20 20 20 19 19 20 19 19 19 18 18 17 17 17 17 17 17 17 17 17
32 30 30 29 27 26 26 25 24 24 23 22 21 21 20 21 22 22 21 20 21 21 20 20 20 20 19 19 20 19 19 18 18 18 18 17 17 17 17 17 17 17 16
32 31 30 30 28 27 27 26 25 24 24 23 22 22 22 21 21 22 21 21 20 21 21 20 20 20 20 19 20 19 18 17 17 17 17 17 17 16 16 17 16 17 16
33 32 31 30 29 27 27 26 25 24 23 23 23 22 22 22 21 22 22 21 21 21 21 21 20 20 20 20 20 19 18 17 17 16 17 16 17 16 16 16 16 16 16
32 31 32 29 28 27 26 26 25 25 24 24 23 23 23 22 21 22 22 22 21 21 21 20 20 20 20 20 20 20 18 18 17 17 16 16 16 16 16 16 16 16 16
33 32 31 29 28 28 27 26 25 25 25 24 23 23 23 23 22 22 22 22 21 21 21 20 20 20 20 20 20 20 18 18 17 17 16 16 16 16 17 16 16 16 16
34 33 31 31 29 29 28 26 25 25 25 24 24 23 23 24 23 23 23 22 22 21 21 21 20 20 20 20 19 19 18 17 17 16 16 16 16 16 16 16 16 16 16
34 33 32 31 31 29 28 26 25 25 26 24 24 24 24 24 23 23 23 23 21 21 20 20 20 20 19 19 19 19 18 18 17 16 16 16 15 16 16 15 16 16 16
34 34 33 33 32 30 29 27 26 25 26 25 24 24 24 23 23 23 23 22 22 21 20 20 19 19 19 18 18 18 17 17 17 17 16 15 15 15 15 15 15 15 15
34 34 34 33 33 32 31 28 27 26 26 26 25 25 24 23 23 22 22 21 21 20 19 19 19 19 19 18 17 17 17 17 17 16 16 15 15 15 15 15 15 15 15
33 33 34 34 33 32 32 31 28 26 26 26 26 25 25 24 23 22 22 21 20 20 20 19 19 18 18 17 16 16 16 16 16 16 15 15 15 15 15 15 15 14 14
33 33 33 34 34 32 32 31 28 27 26 26 27 26 26 25 24 23 22 21 20 20 19 19 19 18 17 16 15 16 16 16 15 15 15 15 15 15 15 14 14 14 14
33 33 33 34 32 33 32 31 30 27 27 27 27 27 26 25 23 22 22 21 21 21 21 19 18 17 16 16 16 16 16 16 15 15 15 14 14 14 14 14 14 14 14
32 33 33 33 33 32 31 31 30 28 28 27 25 26 25 24 23 22 23 23 22 22 19 18 17 17 17 17 15 15 15 15 15 14 14 14 15 14 14 14 14 14 13
31 31 31 33 33 33 31 30 29 28 25 26 25 25 25 23 23 23 24 23 22 20 18 18 17 16 16 15 15 15 15 14 14 13 14 14 15 14 14 14 14 13 12
29 30 30 30 31 32 30 29 28 26 25 25 25 23 23 22 22 24 23 20 19 16 17 17 16 16 16 16 15 15 15 14 14 14 14 14 14 14 14 14 13 12 12
27 28 28 27 27 27 28 28 26 25 25 24 23 21 21 21 21 20 20 19 17 16 16 16 16 16 16 16 16 16 15 14 15 15 14 14 14 13 13 13 13 12 12
24 25 25 25 24 25 25 24 24 23 23 23 23 23 21 20 19 18 17 17 16 16 17 17 16 16 17 17 16 16 16 16 15 14 14 14 14 13 13 12 12 12 12
17 23 22 22 22 22 22 22 22 22 23 23 21 21 19 19 18 18 16 16 16 16 16 16 17 17 17 16 16 16 16 16 15 15 14 14 13 13 12 12 12 12 11
Height
1506 1511 1515 1521 1526 1528 1530 1533 1537 1539 1543 1547 1550 1553 1556 1560 1564 1566 1567 1568 1569 1570 1571 1573 1574 1575 1576 1576 1576 1576 1575 1576 1576 1576 1577 1578 1579 1579 1580 1580 1581 1581 1581
1497 1503 1509 1514 1518 1522 1525 1528 1532 1536 1539 1543 1546 1550 1553 1556 1559 1562 1564 1564 1566 1568 1570 1571 1572 1573 1575 1574 1574 1574 1573 1574 1575 1575 1575 1576 1579 1579 1580 1581 1581 1580 1580
1486 1493 1500 1505 1511 1515 1518 1522 1526 1532 1535 1539 1543 1547 1551 1554 1555 1557 1559 1560 1563 1566 1567 1569 1569 1571 1571 1571 1572 1573 1573 1573 1574 1574 1575 1576 1577 1578 1579 1579 1580 1580 1580
1478 1484 1490 1496 1501 1506 1512 1516 1521 1526 1531 1535 1538 1541 1545 1548 1550 1552 1553 1557 1559 1561 1563 1565 1566 1568 1569 1569 1569 1570 1570 1571 1572 1573 1574 1575 1576 1577 1578 1579 1579 1579 1580
1470 1474 1479 1484 1490 1496 1501 1507 1513 1519 1524 1530 1534 1538 1542 1544 1546 1548 1550 1553 1556 1558 1560 1562 1563 1564 1566 1566 1567 1568 1569 1570 1570 1571 1571 1574 1574 1575 1576 1576 1577 1578 1579
1461 1466 1469 1476 1483 1488 1493 1499 1505 1512 1517 1523 1528 1532 1536 1539 1541 1544 1547 1550 1553 1555 1557 1559 1560 1562 1563 1564 1565 1566 1566 1567 1567 1569 1571 1571 1572 1573 1574 1575 1577 1577 1577
1454 1459 1465 1469 1474 1479 1485 1491 1497 1504 1510 1517 1522 1526 1531 1535 1536 1539 1543 1546 1549 1551 1553 1554 1556 1558 1560 1562 1564 1564 1564 1565 1567 1568 1569 1570 1571 1572 1573 1574 1575 1575 1575
1446 1450 1454 1458 1464 1471 1478 1483 1490 1497 1504 1510 1516 1521 1525 1528 1531 1535 1538 1541 1544 1547 1549 1551 1553 1556 1557 1558 1560 1560 1561 1561 1563 1564 1566 1568 1570 1571 1572 1572 1573 1573 1573
1437 1445 1445 1451 1457 1463 1469 1475 1483 1491 1498 1503 1509 1514 1518 1520 1524 1530 1536 1538 1540 1542 1545 1548 1549 1552 1554 1556 1558 1559 1560 1560 1561 1562 1562 1563 1566 1568 1569 1570 1570 1571 1571
1426 1436 1439 1445 1447 1453 1461 1470 1475 1481 1491 1498 1502 1507 1510 1513 1520 1526 1530 1533 1536 1538 1540 1542 1545 1548 1550 1552 1554 1556 1558 1558 1559 1560 1561 1561 1561 1564 1566 1567 1568 1568 1569
1407 1418 1426 1433 1437 1447 1455 1461 1468 1475 1483 1490 1494 1499 1502 1507 1514 1519 1524 1528 1531 1533 1535 1538 1541 1543 1546 1548 1550 1552 1553 1555 1556 1558 1558 1559 1560 1561 1562 1564 1565 1565 1565
1398 1409 1418 1427 1433 1439 1448 1454 1460 1466 1473 1481 1486 1491 1496 1501 1506 1511 1516 1520 1523 1526 1529 1532 1535 1538 1540 1541 1542 1545 1548 1550 1552 1554 1556 1556 1557 1557 1559 1559 1560 1562 1564
1394 1403 1412 1420 1426 1432 1439 1446 1453 1459 1466 1472 1478 1485 1489 1493 1498 1503 1508 1512 1516 1520 1523 1525 1527 1530 1532 1535 1537 1541 1544 1546 1548 1551 1552 1553 1553 1553 1554 1556 1556 1557 1558
1390 1396 1405 1413 1420 1424 1431 1439 1446 1453 1459 1465 1471 1477 1481 1484 1489 1495 1500 1504 1508 1513 1516 1518 1521 1524 1527 1530 1532 1536 1540 1543 1544 1546 1547 1549 1550 1550 1551 1552 1553 1553 1553
1388 1392 1398 1406 1411 1416 1423 1431 1438 1444 1451 1457 1462 1467 1472 1478 1483 1488 1492 1498 1502 1505 1509 1513 1515 1518 1522 1525 1527 1530 1534 1537 1539 1540 1543 1544 1546 1546 1547 1548 1549 1549 1548
1386 1389 1393 1398 1405 1410 1414 1420 1429 1436 1443 1447 1451 1459 1465 1470 1475 1481 1486 1489 1495 1499 1503 1506 1510 1514 1517 1521 1522 1526 1530 1536 1538 1537 1538 1540 1541 1541 1541 1542 1543 1543 1543
1385 1386 1392 1394 1397 1402 1407 1413 1418 1426 1433 1438 1444 1450 1457 1461 1467 1473 1479 1483 1488 1493 1497 1501 1504 1507 1512 1513 1515 1519 1523 1528 1531 1534 1533 1534 1535 1537 1538 1538 1539 1540 1538
1376 1385 1385 1390 1394 1399 1402 1406 1411 1417 1423 1430 1435 1441 1447 1454 1460 1467 1472 1478 1482 1486 1491 1495 1499 1502 1504 1507 1510 1513 1517 1521 1522 1525 1527 1528 1530 1531 1533 1533 1534 1533 1532
1377 1379 1384 1383 1386 1389 1395 1400 1405 1409 1415 1421 1426 1430 1438 1445 1452 1458 1467 1472 1478 1483 1484 1491 1494 1496 1499 1502 1507 1510 1512 1514 1517 1520 1522 1524 1525 1527 1527 1528 1527 1527 1527
1366 1369 1374 1377 1379 1381 1384 1389 1395 1401 1406 1412 1416 1423 1432 1439 1445 1453 1461 1466 1474 1478 1483 1485 1487 1490 1494 1497 1501 1503 1507 1510 1512 1513 1514 1517 1518 1520 1521 1520 1521 1520 1520
1358 1360 1362 1365 1371 1375 1378 1381 1384 1390 1394 1405 1414 1421 1429 1434 1438 1447 1456 1465 1470 1472 1474 1479 1481 1485 1489 1492 1495 1499 1502 1504 1506 1509 1511 1511 1513 1515 1514 1515 1514 1514 1513
1351 1351 1352 1356 1361 1366 1369 1373 1377 1384 1395 1403 1411 1417 1421 1426 1435 1447 1453 1456 1460 1462 1462 1469 1478 1483 1485 1487 1491 1494 1497 1499 1501 1503 1505 1506 1506 1508 1508 1509 1509 1508 1507
1346 1347 1346 1349 1352 1355 1363 1369 1374 1383 1393 1399 1404 1409 1416 1426 1434 1442 1447 1449 1452 1463 1461 1465 1474 1480 1483 1485 1488 1490 1492 1494 1498 1500 1501 1502 1503 1503 1503 1504 1504 1504 1504
1347 1344 1343 1349 1354 1355 1360 1366 1373 1379 1388 1393 1399 1407 1415 1423 1429 1436 1441 1446 1450 1459 1460 1465 1470 1475 1478 1481 1484 1486 1489 1490 1493 1495 1498 1498 1499 1498 1499 1500 1500 1500 1500
1348 1345 1341 1345 1354 1360 1363 1367 1374 1377 1385 1393 1400 1404 1412 1419 1426 1432 1438 1443 1448 1455 1458 1464 1469 1472 1474 1477 1480 1482 1485 1488 1490 1491 1491 1493 1494 1494 1495 1495 1496 1496 1495
1365 1332 1337 1342 1351 1361 1366 1371 1378 1382 1389 1394 1400 1406 1413 1418 1423 1430 1435 1442 1449 1453 1457 1461 1465 1469 1473 1476 1479 1481 1483 1486 1488 1488 1490 1491 1491 1490 1491 1491 1492 1491 1491
Wind_Speed
38 38 38 37 33 34 33 35 33 26 24 23 19 18 22 17 16 20 18 18 15 15 12 12 11 10 6 5 7 7 7 5 3 3 1 7 3 6 7 4 7 4 4
43 39 42 39 40 38 39 37 35 33 27 25 24 21 21 19 18 14 16 16 16 12 7 8 8 9 8 8 9 6 4 4 5 3 3 6 8 8 6 2 6 3 2
46 46 46 43 43 43 42 41 38 34 35 29 26 22 18 21 20 20 20 21 18 15 10 11 10 8 10 11 8 7 7 8 7 3 3 5 4 12 7 6 4 4 6
48 51 50 48 46 45 42 40 38 36 35 37 32 29 24 25 24 18 21 19 15 15 13 15 12 12 14 13 9 7 4 11 7 5 1 3 4 5 9 10 6 2 2
48 52 54 54 50 48 45 43 40 37 35 35 37 34 26 25 19 18 18 17 19 16 13 15 13 15 11 13 11 6 5 15 11 9 9 2 3 5 5 15 12 10 4
49 48 54 53 52 50 48 46 43 40 37 32 33 33 27 23 26 26 25 22 25 20 14 16 15 14 14 13 11 8 10 14 17 13 11 10 5 8 4 8 5 4 8
45 48 50 54 55 53 50 48 46 42 38 34 32 35 31 27 26 26 26 25 27 23 18 17 19 16 15 13 12 10 10 14 13 16 14 16 8 7 6 6 6 7 10
44 50 54 57 57 55 51 48 47 44 40 36 33 34 37 33 31 29 21 29 26 21 20 19 16 15 15 14 12 12 11 12 12 13 16 17 13 11 8 9 8 7 8
34 46 55 56 58 56 53 50 48 45 41 36 35 35 38 40 36 34 26 26 23 20 19 20 18 18 17 17 14 14 13 12 12 11 14 19 14 14 10 9 12 9 8
41 41 52 56 57 58 54 49 47 46 42 38 36 36 39 40 39 37 36 30 28 28 24 24 24 23 21 20 18 17 16 15 13 11 11 16 16 17 11 9 10 9 10
47 45 56 59 58 56 54 52 49 46 45 41 39 36 39 41 38 39 40 38 32 33 32 30 28 27 26 24 21 19 18 19 17 15 14 14 16 19 16 13 10 10 12
57 53 55 50 53 55 54 55 53 50 46 43 41 38 37 40 40 40 41 42 41 38 33 33 32 30 27 26 26 23 22 21 20 19 16 19 18 17 15 18 18 14 11
42 47 48 49 53 54 54 55 54 51 48 45 44 41 39 41 43 42 41 43 43 41 39 37 37 37 34 31 29 26 25 25 22 20 20 17 17 20 18 17 17 17 15
26 45 46 51 54 54 53 55 55 52 49 47 46 44 43 43 44 42 43 44 43 43 43 43 42 40 37 34 32 29 26 26 27 24 23 20 18 17 19 19 17 16 17
25 45 50 54 49 54 55 54 55 54 49 48 48 47 45 44 44 44 42 43 47 46 43 42 43 42 39 35 34 31 29 26 26 25 25 23 21 20 20 20 19 20 19
20 36 38 41 49 53 55 56 55 54 50 48 48 47 46 46 46 46 43 42 41 44 44 42 41 41 38 35 35 32 31 26 23 21 23 24 25 24 21 20 19 20 21
26 32 32 40 48 50 50 56 57 56 55 50 49 48 46 46 47 47 44 43 40 37 38 39 38 35 35 33 32 31 29 25 24 23 24 27 27 24 22 22 21 19 17
15 24 27 29 28 39 52 51 57 59 57 54 51 49 48 46 45 45 44 42 40 38 36 34 34 32 32 30 28 25 25 24 24 24 27 25 25 24 23 20 20 22 23
38 28 23 30 28 34 37 54 56 61 59 58 54 53 49 48 48 47 42 43 39 37 36 32 32 30 30 27 24 26 24 26 27 29 30 28 24 21 20 22 23 24 26
30 33 36 27 30 37 39 45 56 59 62 60 59 56 53 50 51 47 43 41 33 25 27 29 27 25 23 21 19 20 27 28 28 28 31 29 28 24 23 21 21 25 24
17 22 32 32 26 27 40 43 47 56 62 60 53 54 50 50 49 42 39 30 26 27 26 23 20 19 17 16 18 20 20 21 19 21 20 22 22 23 21 20 19 21 19
3 4 17 38 33 25 44 47 47 48 45 43 43 41 45 45 41 34 29 26 28 28 23 18 17 17 16 17 23 20 19 16 18 19 17 16 15 17 16 17 18 17 16
8 10 9 26 32 33 42 44 42 40 39 40 39 39 39 34 32 29 29 28 23 19 17 16 17 17 16 13 14 16 16 17 18 18 18 19 18 18 17 16 14 13 11
16 18 22 23 22 28 34 36 36 35 39 41 37 33 29 28 26 24 22 21 19 17 15 16 16 17 16 14 13 10 13 16 19 18 18 20 17 12 9 9 6 9 13
22 24 28 28 24 24 28 31 32 35 37 36 33 31 29 28 26 23 21 18 17 15 14 12 13 14 14 11 7 9 9 9 11 15 16 12 7 5 6 8 9 10 11
22 35 34 34 31 27 29 29 27 25 27 27 28 28 29 27 26 26 24 20 16 16 17 16 13 11 9 11 10 10 8 7 6 7 8 8 7 6 10 7 8 9 10
Wind_Direction
199 201 196 198 199 202 201 207 205 211 217 218 215 206 192 200 213 229 230 240 244 257 286 270 237 239 256 312 272 314 323 136 51 327 171 211 182 117 140 134 119 155 231
193 198 197 199 202 207 212 211 214 212 214 219 220 217 209 206 212 226 207 223 235 250 248 224 248 218 234 243 259 309 186 147 174 300 227 186 190 157 183 240 163 196 236
190 195 198 199 202 206 212 216 216 214 212 215 216 216 220 218 223 220 225 228 228 236 234 227 228 214 218 237 265 281 183 159 164 40 123 155 184 187 181 214 204 52 63
192 195 197 197 201 208 214 218 220 218 215 216 221 222 222 208 213 223 227 229 232 243 248 237 228 238 230 241 251 287 187 189 170 165 103 32 176 182 178 203 221 234 38
190 195 198 201 203 206 211 218 221 218 220 216 222 224 223 222 217 213 226 228 231 227 245 231 231 221 223 238 248 214 201 177 171 176 178 169 164 153 172 195 208 216 227
195 201 203 203 202 206 209 213 216 219 222 221 219 219 211 211 213 215 218 224 224 219 209 208 222 223 227 237 235 239 213 196 190 185 187 188 204 206 188 159 179 202 212
193 196 197 199 201 203 206 210 213 216 221 220 216 215 210 207 201 199 215 225 214 215 224 234 234 236 230 229 222 216 208 205 205 205 211 209 203 205 194 218 256 266 278
199 197 204 203 202 202 205 208 212 214 217 218 216 212 214 214 206 207 221 216 223 227 227 231 233 230 228 236 219 216 206 202 207 210 205 201 217 229 231 240 239 267 278
204 203 202 204 202 201 205 208 211 214 216 219 216 215 214 220 215 207 210 216 222 230 227 229 236 238 236 235 231 221 222 211 203 203 210 215 204 207 213 250 241 279 274
209 211 198 205 207 205 205 208 213 213 215 217 219 219 218 221 219 214 211 212 220 229 227 229 235 241 246 238 232 226 215 220 222 227 224 202 206 206 220 234 233 263 271
204 200 201 205 208 203 203 204 209 212 211 217 220 222 222 221 220 217 218 217 218 225 227 229 234 240 243 239 235 229 228 222 224 228 227 224 200 213 231 231 229 252 256
206 200 196 193 199 202 203 205 207 211 214 216 221 225 225 223 222 220 218 221 223 229 231 230 236 243 244 241 238 232 226 225 223 229 231 231 232 231 232 228 227 243 246
188 187 187 188 195 201 203 202 206 210 215 217 221 226 227 226 225 222 221 225 223 225 230 231 237 243 247 245 244 237 229 229 228 235 235 234 236 235 224 223 227 235 251
191 182 181 190 195 200 204 201 201 210 215 219 222 225 228 229 229 229 225 227 228 229 230 234 239 244 249 250 248 242 231 231 229 235 239 242 238 235 232 240 241 249 262
178 175 185 191 200 201 204 204 202 206 215 218 222 226 230 231 231 232 233 229 230 235 237 236 239 243 247 251 249 243 233 228 226 233 236 238 245 244 242 247 250 256 261
204 201 190 190 199 204 204 204 204 206 209 217 223 226 229 231 231 233 234 237 234 234 236 238 242 246 249 251 252 248 236 233 236 239 236 237 241 242 243 248 253 261 272
206 186 200 202 205 209 212 207 208 207 208 215 220 224 226 229 231 232 234 237 238 235 234 238 244 249 254 255 249 245 237 236 237 248 238 237 245 248 250 256 264 266 273
286 217 207 212 210 215 213 219 211 207 210 211 219 220 225 228 229 231 233 235 235 236 235 237 239 253 257 250 244 238 232 235 243 253 242 241 252 251 252 262 273 274 278
240 259 239 204 213 212 214 215 210 209 209 212 216 221 221 226 227 225 229 231 230 233 235 241 248 253 254 249 232 224 225 230 243 245 241 247 247 253 260 269 271 273 276
218 220 246 252 241 213 211 211 213 209 209 215 216 220 220 223 223 221 224 227 233 238 247 243 247 252 252 250 253 238 234 241 250 249 245 245 255 260 263 269 273 276 285
232 236 235 233 239 230 212 209 209 212 218 212 211 216 218 217 219 214 220 228 232 233 237 240 245 244 243 252 235 222 245 250 247 245 249 250 248 262 263 270 276 281 284
278 223 225 222 218 228 211 207 204 210 197 202 202 208 211 212 212 217 222 225 230 228 205 210 227 232 235 232 230 243 246 247 245 243 240 245 254 254 267 279 289 286 291
206 215 203 200 200 200 201 198 196 192 185 195 195 196 199 199 200 221 218 213 206 205 192 198 216 221 220 227 236 248 245 237 233 237 247 250 261 272 274 286 295 298 310
161 174 166 160 164 178 187 188 182 179 179 187 187 183 186 193 202 210 196 192 187 193 193 198 207 206 206 218 226 230 230 230 229 244 258 266 269 272 293 294 285 303 309
147 149 146 148 146 159 164 167 172 175 177 185 192 196 193 195 189 180 175 184 184 185 173 181 189 191 214 235 232 213 210 225 248 248 245 249 253 286 289 289 282 298 311
331 139 133 131 134 146 150 155 165 176 186 196 193 186 179 177 175 174 170 167 175 175 182 193 202 202 204 191 195 187 194 213 229 230 230 241 268 288 298 275 273 291 295